Погода в Чистеньком

Россия / Республика Крым     44°52′51″N   34°02′42″E
темп.,
°C
ветер,
м/с
пор.,
м/с
влажн.,
%
обл.,
%
осадки,
мм/ч
давл.,
гПа
погр.,
м
10 апреля, сб
сб1000:00+1ю117267 0.0 102612
03:00+1ссв017843 0.0 102610
06:000в117594 0.0 102510
09:00+5ссв4759100 0.0 1025440
12:00+10ссв6842100 0.0 10242112
15:00+10св674195 0.0 10231945
18:00+8св695386 0.0 10241370
21:00+6ссв226287 0.0 102421
11 апреля, вс
вс1100:00+4св116969 0.0 102410
03:00+3всв227297 0.0 102421
06:00+3св367891 0.0 1023122
09:00+7св61267100 0.0 1023784
12:00+11св81152100 0.0 10221321
15:00+8св61262100 0.0 1022978
18:00+8св51266100 0.0 1021797
21:00+7св2772100 0.0 1022270
12 апреля, пн
пн1200:00+7св3879100 0.0 1021411
03:00+6св2797100 3.0 1020358
06:00+6ссв2599100 2.6 1019322
09:00+7св2396100 2.7 1020210
12:00+8ююв0187100 0.0 1020380
15:00+11зюз337686 0.0 1020781
18:00+9з3383100 0.0 1020396
21:00+8зюз119095 0.0 102238
13 апреля, вт
вт1300:00+7зюз229299 0.0 102184
03:00+7зюз239580 0.0 1022115
06:00+6зюз119653 0.0 102228
09:00+9зюз118094 0.0 1022339
12:00+13зсз2262100 0.1 10211298
15:00+11з437599 0.1 1022596
18:00+9зюз3479100 0.0 1021383
21:00+8зсз118360 0.0 102162
14 апреля, ср
ср1400:00+6св019279 0.0 102011
03:00+6вюв2289100 0.0 101916
06:00+5юв228747 0.0 101819
09:00+10юв236382 0.0 1017338
12:00+15ююв3446100 0.0 10161244
15:00+14юв4452100 0.0 1015875
18:00+12ююв2474100 0.3 1014185
21:00+8юв46824 0.3 1014113